Flight Track Log - Related Links

Times and Time Zones

All times are in EDT time to prevent confusion due to time zone crossing. See the N391W flight status page for this flight to view local times or setup timezone preferences in your user account.

Time Position Orientation Groundspeed Altitude Reporting Facility
EDT Latitude Longitude Course Direction KTS MPH feet Rate Location/Type
Fri 04:05:03 PM 40.8333 -74.0833 255° West 160 184 1,300  Level New York TRACON
Fri 04:06:03 PM 40.8167 -74.1667 255° West 250 288 1,800 1,450 Climbing New York TRACON
Fri 04:07:03 PM 40.8167 -74.2500 270° West 255 293 4,200 2,450 Climbing New York TRACON
Fri 04:08:03 PM 40.8333 -74.3500 282° West 279 321 6,700 2,900 Climbing New York TRACON
Fri 04:09:03 PM 40.8333 -74.4500 270° West 281 323 10,000 3,250 Climbing New York TRACON
Fri 04:10:03 PM 40.8167 -74.5667 259° West 334 384 13,200 3,129 Climbing New York TRACON
Fri 04:11:23 PM 40.8175 -74.7497 270° West 365 420 17,300 2,849 Climbing New York Center
Fri 04:12:22 PM 40.8122 -74.9028 267° West 400 460 19,800 2,821 Climbing New York Center
Fri 04:13:20 PM 40.8067 -75.0617 267° West 415 478 22,800 3,025 Climbing New York Center
Fri 04:14:21 PM 40.7903 -75.2167 262° West 426 490 25,800 2,628 Climbing New York Center
Fri 04:15:21 PM 40.7664 -75.3578 257° West 438 504 28,100 2,231 Climbing New York Center
Fri 04:16:22 PM 40.7158 -75.5242 248° West 443 510 30,300 1,967 Climbing New York Center
Fri 04:17:23 PM 40.6597 -75.6733 244° Southwest 448 516 32,100 1,785 Climbing New York Center
Fri 04:18:23 PM 40.6036 -75.8197 243° Southwest 455 524 33,900 1,831 Climbing New York Center
Fri 04:19:21 PM 40.5408 -75.9736 242° Southwest 460 529 35,700 1,831 Climbing New York Center
Fri 04:20:21 PM 40.4842 -76.1194 243° Southwest 460 529 37,500 1,770 Climbing New York Center
Fri 04:21:23 PM 40.4294 -76.2678 244° Southwest 460 529 39,300 1,250 Climbing New York Center
Fri 04:22:21 PM 40.3750 -76.4053 243° Southwest 455 524 40,000 356 Climbing New York Center
Fri 04:23:21 PM 40.3203 -76.5478 243° Southwest 450 518 40,000  Level New York Center
Fri 04:24:22 PM 40.2608 -76.6953 242° Southwest 445 512 40,000  Level New York Center
Fri 04:25:23 PM 40.2036 -76.8369 242° Southwest 451 519 40,000  Level New York Center
Fri 04:26:21 PM 40.1461 -76.9786 242° Southwest 451 519 40,000  Level New York Center
Fri 04:27:21 PM 40.1203 -77.1122 256° West 436 502 40,000  Level New York Center
Fri 04:28:23 PM 40.1203 -77.2669 270° West 419 482 40,000  Level New York Center
Fri 04:30:00 PM 40.1181 -77.5342 269° West 410 472 40,000  Level Cleveland Center
Fri 04:31:00 PM 40.1158 -77.6864 269° West 410 472 40,000  Level Cleveland Center
Fri 04:32:00 PM 40.1133 -77.8383 269° West 423 487 40,000  Level Cleveland Center
Fri 04:33:00 PM 40.1067 -77.9989 267° West 428 493 40,000  Level Cleveland Center
Fri 04:34:00 PM 40.1017 -78.1564 268° West 434 499 40,000 -350 Level Cleveland Center
Fri 04:35:00 PM 40.1050 -78.3139 272° West 439 505 39,300 -3,500 Descending Cleveland Center
Fri 04:36:00 PM 40.1100 -78.4683 272° West 439 505 33,000 -800 Descending Cleveland Center
Fri 04:37:00 PM 40.1150 -78.6203 273° West 434 499 37,700 1,950 Climbing Cleveland Center
Fri 04:38:00 PM 40.1194 -78.7722 272° West 428 493 36,900 -750 Descending Cleveland Center
Fri 04:39:00 PM 40.1219 -78.9269 271° West 423 487 36,200 -800 Descending Cleveland Center
Fri 04:40:00 PM 40.1261 -79.0842 272° West 423 487 35,300 -850 Descending Cleveland Center
Fri 04:41:00 PM 40.1303 -79.2444 272° West 434 499 34,500 -750 Descending Cleveland Center
Fri 04:42:00 PM 40.1358 -79.3883 273° West 440 506 33,800 -750 Descending Cleveland Center
Fri 04:43:00 PM 40.1375 -79.5483 271° West 440 506 33,000 -400 Descending Cleveland Center
Fri 04:44:00 PM 40.1411 -79.7142 272° West 440 506 33,000 -100 Level Cleveland Center
Fri 04:45:00 PM 40.1442 -79.8797 271° West 446 513 32,800 -350 Descending Cleveland Center
Fri 04:46:00 PM 40.1431 -80.0617 270° West 462 532 32,300 -400 Descending Cleveland Center
Fri 04:47:00 PM 40.1458 -80.2300 271° West 457 526 32,000 -150 Descending Cleveland Center
Fri 04:48:00 PM 40.1525 -80.3739 274° West 457 526 32,000  Level Cleveland Center
Fri 04:49:00 PM 40.1525 -80.5369 270° West 457 526 32,000  Level Cleveland Center
Fri 04:50:00 PM 40.1547 -80.7025 271° West 457 526 32,000  Level Cleveland Center
Fri 04:51:00 PM 40.1564 -80.8683 271° West 457 526 32,000 -200 Level Cleveland Center
Fri 04:52:00 PM 40.1581 -81.0339 271° West 457 526 31,600 -900 Descending Cleveland Center
Fri 04:53:00 PM 40.1572 -81.2161 270° West 457 526 30,200 -1,694 Descending Cleveland Center
Fri 04:54:50 PM 40.1550 -81.5056 270° West 466 536 26,800 -2,023 Descending Indianapolis Center
Fri 04:55:52 PM 40.1558 -81.6744 270° West 463 533 24,400 -2,661 Descending Indianapolis Center
Fri 04:56:54 PM 40.1556 -81.8314 270° West 426 490 21,300 -3,242 Descending Indianapolis Center
Fri 04:57:56 PM 40.1697 -82.0006 276° West 405 466 17,700 -3,193 Descending Indianapolis Center
Fri 04:58:43 PM 40.1900 -82.1050 284° West 382 440 15,500 -2,806 Descending Indianapolis Center
Fri 04:58:58 PM 40.1944 -82.1372 280° West 383 441 14,800 -2,919 Descending Indianapolis Center
Fri 04:59:20 PM 40.2017 -82.1881 281° West 374 430 13,700 -2,903 Descending Indianapolis Center
Fri 05:00:00 PM 40.2003 -82.2692 269° West 370 426 11,800 -3,000 Descending Indianapolis Center
Fri 05:00:20 PM 40.1958 -82.3156 263° West 348 400 10,700 -1,742 Descending Indianapolis Center
Fri 05:01:02 PM 40.1967 -82.3931 271° West 344 396 10,000 -627 Descending Indianapolis Center
Fri 05:01:27 PM 40.1975 -82.4578 271° West 333 383 10,000  Level Indianapolis Center
Fri 05:02:04 PM 40.1975 -82.5192 270° West 340 391 10,000 -97 Level Indianapolis Center
Fri 05:02:29 PM 40.1978 -82.5833 270° West 344 396 9,900 -581 Descending Indianapolis Center
Fri 05:03:06 PM 40.1975 -82.6367 270° West 328 377 9,400 -1,600 Descending Indianapolis Center
Fri 05:03:29 PM 40.1972 -82.6869 270° West 285 328 8,300 -2,032 Descending Indianapolis Center
Fri 05:04:08 PM 40.1967 -82.7408 269° West 291 335 7,300 -2,066 Descending Indianapolis Center
Fri 05:04:30 PM 40.1919 -82.8008 264° West 286 329 6,200 -2,129 Descending Indianapolis Center
Fri 05:05:10 PM 40.1844 -82.8631 261° West 289 333 5,100 -1,636 Descending Indianapolis Center
Fri 05:05:25 PM 40.1800 -82.8842 255° West 279 321 4,700 -1,770 Descending Indianapolis Center
Fri 05:06:11 PM 40.1633 -82.9594 254° West 281 323 3,300 -1,791 Descending Indianapolis Center
Fri 05:06:32 PM 40.1458 -82.9892 232° Southwest 265 305 2,700 -774 Descending Indianapolis Center
Fri 05:07:13 PM 40.1256 -83.0392 242° Southwest 266 306 2,500 -179 Descending Indianapolis Center
Fri 05:07:39 PM 40.1228 -83.0794 265° West 215 247 2,500 -194 Level Indianapolis Center
Fri 05:08:15 PM 40.1211 -83.1128 266° West 220 253 2,300 -490 Descending Indianapolis Center
Fri 05:09:17 PM 40.0828 -83.1258 195° South 171 197 1,700 -684 Descending Indianapolis Center
Fri 05:09:34 PM 40.0747 -83.1119 127° Southeast 134 154 1,400 -677 Descending Indianapolis Center
Fri 05:10:19 PM 40.0794 -83.0747 81° East 146 168 1,000 -533 Descending Indianapolis Center
Fri 05:12:00 PM 40.0798 -83.0732 90° East  Level Estimated

Login

Don't have an account? Register now (free) for customized features, flight alerts, and more!